Oceanside, CA

12:39 AM PST on February 25, 2017 (GMT -0800)
Oceanside Municipal

Weather History for KOKB - April, 2013

Change the Weather History Date:

Monday, April 22, 2013

  Actual Average Record
Temperature  
Mean Temperature 63 °F 59 °F  
Max Temperature 68 °F 69 °F 71 °F (2016)
Min Temperature 58 °F 50 °F 40 °F (2002)
Degree Days  
Heating Degree Days 2 6  
Month to date heating degree days 114 153  
Since 1 July heating degree days 1725 1851  
Cooling Degree Days 0 0  
Month to date cooling degree days 0 0  
Year to date cooling degree days 0 1  
Growing Degree Days 12 (Base 50)    
Moisture  
Dew Point 52 °F    
Average Humidity 71    
Maximum Humidity 86    
Minimum Humidity 55    
Precipitation  
Precipitation 0.00 in 0.03 in 0.74 in (2010)
Month to date precipitation T 0.76  
Year to date precipitation 1.74 8.69  
Since 1 July precipitation 5.58  
Snow  
Snow 0.00 in - - ()
Month to date snowfall 0.0  
Year to date snowfall 0.0  
Snow Depth 0.00 in    
Sea Level Pressure  
Sea Level Pressure 29.96 in    
Wind  
Wind Speed 5 mph (SW)    
Max Wind Speed 14 mph    
Max Gust Speed 18 mph    
Visibility 8 miles    
Events      
T = Trace of Precipitation, MM = Missing Value Source: NWS Daily Summary

Daily Weather History Graph

Daily Weather History Graph

Search for Another Location

Airport or City:

Trip Planner

Search our weather history database for the weather conditions in past years. The results will help you decide how hot, cold, wet, or windy it might be!

Date:

Astronomy

Apr. 22, 2013 Rise Set
Actual Time 6:10 AM PDT 7:25 PM PDT
Civil Twilight 5:44 AM PDT 7:51 PM PDT
Nautical Twilight 5:14 AM PDT 8:22 PM PDT
Astronomical Twilight 4:42 AM PDT 8:54 PM PDT
Moon 4:27 PM PDT (4/22) 3:57 AM PDT (4/22)
Length of Visible Light 14h 06m
Length of Day
13h 14m
Waxing Gibbous, 88% of the Moon is Illuminated
Apr 22
Waxing Gibbous
Apr 25
Full
May 2
Last Quarter
May 9
New
May 17
First Quarter

Hourly Weather History & Observations

Time (PDT) Temp. Dew Point Humidity Pressure Visibility Wind Dir Wind Speed Gust Speed Precip Events Conditions
12:52 AM 59.0 °F 54.0 °F 83% 30.00 in 7.0 mi Calm Calm - N/A   Overcast
1:52 AM 59.0 °F 54.0 °F 83% 29.99 in 7.0 mi Calm Calm - N/A   Overcast
2:52 AM 59.0 °F 54.0 °F 83% 29.98 in 6.0 mi WSW 3.5 mph - N/A   Haze
3:52 AM 57.9 °F 53.1 °F 84% 29.98 in 7.0 mi Calm Calm - N/A   Overcast
4:31 AM 57.2 °F 53.6 °F 88% 29.97 in 7.0 mi Calm Calm - N/A   Overcast
4:52 AM 57.9 °F 53.1 °F 84% 29.98 in 7.0 mi SSW 4.6 mph - N/A   Overcast
5:52 AM 57.9 °F 53.1 °F 84% 29.97 in 7.0 mi SW 4.6 mph - N/A   Overcast
6:52 AM 57.9 °F 53.1 °F 84% 29.99 in 5.0 mi East 4.6 mph - N/A   Haze
7:05 AM 57.2 °F 53.6 °F 88% 29.99 in 5.0 mi Calm Calm - N/A   Haze
7:52 AM 59.0 °F 52.0 °F 78% 29.99 in 6.0 mi Calm Calm - N/A   Haze
8:52 AM 60.1 °F 53.1 °F 78% 30.00 in 6.0 mi Calm Calm - N/A   Haze
9:52 AM 61.0 °F 52.0 °F 72% 30.00 in 7.0 mi South 3.5 mph - N/A   Overcast
10:44 AM 64.4 °F 53.6 °F 68% 29.99 in 6.0 mi Variable 3.5 mph - N/A   Haze
10:52 AM 66.9 °F 53.1 °F 61% 29.99 in 6.0 mi Variable 4.6 mph - N/A   Haze
11:52 AM 66.0 °F 52.0 °F 60% 29.98 in 7.0 mi West 5.8 mph - N/A   Clear
12:52 PM 68.0 °F 52.0 °F 56% 29.96 in 8.0 mi WSW 8.1 mph - N/A   Clear
1:52 PM 66.9 °F 52.0 °F 59% 29.95 in 8.0 mi WSW 11.5 mph 18.4 mph N/A   Clear
2:52 PM 66.0 °F 52.0 °F 60% 29.94 in 9.0 mi WSW 9.2 mph - N/A   Clear
3:42 PM 64.4 °F 51.8 °F 64% 29.93 in 8.0 mi SW 8.1 mph - N/A   Mostly Cloudy
3:52 PM 64.0 °F 52.0 °F 65% 29.93 in 8.0 mi WSW 12.7 mph 16.1 mph N/A   Mostly Cloudy
4:52 PM 61.0 °F 51.1 °F 70% 29.93 in 8.0 mi SSW 4.6 mph - N/A   Overcast
5:52 PM 60.1 °F 51.1 °F 72% 29.92 in 8.0 mi WSW 8.1 mph - N/A   Overcast
6:52 PM 59.0 °F 51.1 °F 75% 29.92 in 8.0 mi SSW 9.2 mph - N/A   Overcast
7:52 PM 59.0 °F 51.1 °F 75% 29.92 in 10.0 mi SW 3.5 mph - N/A   Overcast
8:52 PM 59.0 °F 50.0 °F 72% 29.94 in 10.0 mi Calm Calm - N/A   Overcast
9:52 PM 59.0 °F 51.1 °F 75% 29.95 in 10.0 mi SW 4.6 mph - N/A   Overcast
10:52 PM 59.0 °F 50.0 °F 72% 29.95 in 10.0 mi Variable 3.5 mph - N/A   Overcast
11:52 PM 59.0 °F 51.1 °F 75% 29.95 in 10.0 mi Calm Calm - N/A   Overcast